www.pogodaiklimat.ru

Погода и климат >> Архив погоды >> Австралия >> Bourke Airport Aws


ПОГОДА в Bourke Airport Aws

  • Прогноз погоды в Bourke Airport Aws
  • Монитор погоды в Bourke Airport Aws
  • Климат города

АРХИВ ПОГОДЫ в Bourke Airport Aws

Время (UTC), дата Ветер
(напр.,м/с)
 
Видим.   Явления Облачность Т
(С)
Тd
(С)
f
(%)
Тe
(С)
Тes
(С)
Комфортность P
(гПа)
Po
(гПа)
Тmin
(С)
Tmax
(С)
R
(мм)
S
(см)
07 20.02 ЮЗ 5 н/о н/о +28.6 +2.0 18 +26 +26 жарко 1011.6 999.4
08 20.02 ЮЗ 3 н/о н/о +28.2 +1.7 18 +26 +26 жарко 1012.1 999.9
09 20.02 З 2 н/о н/о +26.7 +1.9 20 +25 +25 комфорт 1012.9 1000.7
10 20.02 З 3 н/о н/о +24.9 +3.5 25 +24 +24 комфорт 1013.9 1001.7
11 20.02 З 3 н/о н/о +23.8 +2.0 24 +23 +23 комфорт 1014.7 1002.5
12 20.02 З 3 н/о н/о +22.8 +1.8 25 +22 +22 комфорт 1015.2 1003.0
13 20.02 ЮЗ 3 н/о н/о +21.7 +1.4 26 +21 +21 комфорт 1015.5 1003.3 +29.6
14 20.02 ЮЗ 3 н/о н/о +20.0 +1.4 29 +21 +21 комфорт 1015.4 1003.2
15 20.02 Ю 3 н/о н/о +20.1 +1.0 28 +21 +21 комфорт 1015.0 1002.8
16 20.02 Ю 4 н/о н/о +19.4 -0.1 27 +19 +19 1014.8 1002.6
17 20.02 Ю 4 н/о н/о +18.6 -0.7 27 +19 +19 1014.7 1002.5
18 20.02 Ю 4 н/о н/о +17.5 -0.7 29 +17 +17 1015.1 1002.9
19 20.02 ЮВ 3 н/о н/о +16.6 -0.6 31 +16 +16 1015.7 1003.5
20 20.02 ЮВ 2 н/о н/о +15.4 +0.8 37 +15 +15 1016.5 1004.3
21 20.02 ЮВ 3 н/о н/о +17.7 -0.1 30 +18 +18 1017.3 1005.1
22 20.02 ЮВ 4 н/о н/о +21.2 -1.3 22 +21 +21 комфорт 1018.1 1005.8
23 20.02 В 6 н/о н/о +24.8 -1.1 18 +23 +23 комфорт 1018.6 1006.3
00 21.02 В 5 н/о н/о +26.9 -1.9 15 +25 +25 комфорт 1018.4 1006.1
01 21.02 В 4 н/о н/о +28.8 -0.4 15 +26 +26 жарко 1017.3 1005.1 +15.5
02 21.02 В 4 н/о н/о +29.2 -0.1 15 +27 +27 жарко 1016.3 1004.1
03 21.02 В 3 н/о н/о +30.9 +0.3 14 +28 +28 жарко 1015.5 1003.3
04 21.02 С 3 н/о н/о +31.8 0.0 13 +29 +29 жарко 1014.8 1002.6
05 21.02 В 3 н/о н/о +32.2 +0.3 13 +29 +29 жарко 1014.1 1001.9
06 21.02 В 3 н/о н/о +32.8 -0.3 12 +29 +29 жарко 1013.8 1001.6
07 21.02 СВ 2 н/о н/о +33.3 +0.1 12 +30 +30 жарко 1013.5 1001.3
08 21.02 ЮВ 3 н/о н/о +32.2 -0.8 12 +29 +29 жарко 1013.6 1001.4
09 21.02 В 3 н/о н/о +30.0 -0.4 14 +27 +27 жарко 1014.0 1001.8
10 21.02 В 2 н/о н/о +26.4 -2.3 15 +24 +24 комфорт 1014.5 1002.3
11 21.02 В 2 н/о н/о +25.2 +0.7 20 +24 +24 комфорт 1014.9 1002.7
12 21.02 ЮВ 3 н/о н/о +23.2 +2.1 25 +23 +23 комфорт 1015.0 1002.8
13 21.02 ЮВ 3 н/о н/о +23.0 +1.4 24 +22 +22 комфорт 1014.8 1002.6 +33.7
14 21.02 В 3 н/о н/о +21.3 +2.1 28 +21 +21 комфорт 1014.7 1002.5
15 21.02 СВ 3 н/о н/о +19.4 -0.1 27 +20 +20 1014.5 1002.3
16 21.02 СВ 3 н/о н/о +18.6 +0.2 29 +19 +19 1013.7 1001.5
17 21.02 В 3 н/о н/о +20.0 +1.0 28 +20 +20 1013.6 1001.4
18 21.02 В 4 н/о н/о +19.9 +0.9 28 +20 +20 1013.9 1001.7
19 21.02 В 4 н/о н/о +19.6 +1.1 29 +20 +20 1014.2 1002.0
20 21.02 В 4 н/о н/о +19.6 +0.1 27 +20 +20 1014.8 1002.6
21 21.02 В 4 н/о н/о +21.5 +1.2 26 +21 +21 комфорт 1015.7 1003.5
22 21.02 СВ 5 н/о н/о +26.8 +2.0 20 +25 +25 комфорт 1016.0 1003.8
23 21.02 СВ 5 н/о н/о +30.0 +3.9 19 +28 +28 жарко 1016.2 1004.0
00 22.02 СВ 5 н/о н/о +32.1 +4.0 17 +30 +30 жарко 1016.1 1003.9
01 22.02 СВ 6 н/о н/о +33.9 +2.7 14 +31 +31 жарко 1015.4 1003.2 +18.3
02 22.02 СВ 3 н/о н/о +34.7 +3.3 14 +32 +32 жарко 1014.8 1002.6
03 22.02 С 3 н/о н/о +35.1 +2.6 13 +32 +32 жарко 1013.7 1001.5
04 22.02 С 3 н/о н/о +36.9 +2.8 12 +34 +34 очень
жарко
1012.8 1000.6
05 22.02 В 4 н/о н/о +37.0 +2.9 12 +34 +34 очень
жарко
1011.8 999.6
06 22.02 СВ 4 н/о н/о +37.0 +1.7 11 +34 +34 очень
жарко
1011.1 998.9
07 22.02 СВ 3 н/о н/о +37.2 +1.8 11 +34 +34 очень
жарко
1011.0 998.8
08 22.02 С 2 н/о н/о +36.8 +2.8 12 +34 +34 очень
жарко
1011.2 999.0
09 22.02 В 2 н/о н/о +34.1 +1.8 13 +31 +31 жарко 1011.5 999.3
10 22.02 ЮВ 3 н/о н/о +30.2 +3.3 18 +28 +28 жарко 1012.3 1000.1
11 22.02 ЮВ 3 н/о н/о +29.6 +4.3 20 +28 +28 жарко 1012.9 1000.7
12 22.02 Ю 2 н/о н/о +27.1 +2.9 21 +26 +26 жарко 1013.4 1001.2
13 22.02 ЮВ 2 н/о н/о +25.6 +3.6 24 +25 +25 комфорт 1013.6 1001.4 +38.4
14 22.02 В 3 н/о н/о +26.0 +4.5 25 +25 +25 комфорт 1013.7 1001.5
15 22.02 В 4 н/о н/о +27.2 +8.1 30 +27 +27 жарко 1013.2 1001.0
16 22.02 СВ 4 н/о н/о +27.5 +10.2 34 +28 +28 жарко 1013.1 1000.9
17 22.02 СВ 4 н/о н/о +27.4 +11.0 36 +28 +28 жарко 1012.8 1000.6
18 22.02 СВ 4 н/о н/о +26.6 +11.9 40 +28 +28 жарко 1013.0 1000.8
19 22.02 СВ 3 н/о н/о +25.0 +11.6 43 +26 +26 жарко 1013.6 1001.4
20 22.02 СВ 4 н/о н/о +24.6 +12.5 47 +26 +26 жарко 1014.1 1001.9
21 22.02 СВ 5 н/о н/о +27.7 +12.5 39 +29 +29 жарко 1014.9 1002.7
22 22.02 СВ 7 н/о н/о +30.5 +12.4 33 +31 +31 жарко 1015.4 1003.2
23 22.02 С 7 н/о н/о +32.8 +12.4 29 +33 +33 жарко 1015.9 1003.7
00 23.02 С 6 н/о н/о +35.1 +12.1 25 +35 +35 очень
жарко
1016.0 1003.8
01 23.02 С 6 н/о н/о +36.8 +12.3 23 +37 +37 очень
жарко
1015.5 1003.3 +24.2
02 23.02 СВ 5 н/о н/о +37.8 +9.4 18 +36 +36 очень
жарко
1014.7 1002.5
03 23.02 В 6 н/о н/о +38.6 +5.3 13 +36 +36 очень
жарко
1014.2 1002.0
04 23.02 Ю 3 н/о н/о +37.6 +4.5 13 +35 +35 очень
жарко
1013.5 1001.3
05 23.02 Ю 4 н/о н/о +39.7 +5.0 12 +37 +37 очень
жарко
1013.0 1000.8
06 23.02 СВ 2 н/о н/о +39.8 +3.8 11 +37 +37 очень
жарко
1012.6 1000.4
07 23.02 ЮЗ 3 н/о н/о +40.2 +4.1 11 +37 +37 очень
жарко
1012.5 1000.3
08 23.02 Ю 3 н/о н/о +39.1 +4.5 12 +36 +36 очень
жарко
1012.6 1000.4
09 23.02 В 2 н/о н/о +36.1 +3.3 13 +33 +33 жарко 1012.9 1000.7
10 23.02 В 2 н/о н/о +32.0 +3.1 16 +29 +29 жарко 1013.4 1001.2
11 23.02 СВ 3 н/о н/о +30.9 +4.6 19 +29 +29 жарко 1013.9 1001.7
12 23.02 В 3 н/о н/о +31.3 +6.4 21 +30 +30 жарко 1014.1 1001.9
13 23.02 СВ 3 н/о н/о +30.3 +7.5 24 +29 +29 жарко 1014.0 1001.8 +40.8
14 23.02 З 2 н/о н/о +30.2 +8.0 25 +29 +29 жарко 1014.6 1002.4
15 23.02 С 3 н/о н/о +30.6 +7.7 24 +30 +30 жарко 1014.6 1002.4
16 23.02 С 3 н/о н/о +27.4 +7.8 29 +27 +27 жарко 1014.1 1001.9
17 23.02 В 3 н/о н/о +26.8 +8.3 31 +27 +27 жарко 1014.1 1001.9
18 23.02 В 3 н/о н/о +25.3 +7.9 33 +25 +25 комфорт 1014.3 1002.1
19 23.02 В 2 н/о н/о +24.4 +8.8 37 +25 +25 комфорт 1014.7 1002.5
20 23.02 ЮЗ 3 н/о н/о +23.5 +8.8 39 +24 +24 комфорт 1015.4 1003.2
21 23.02 ЮВ 2 н/о н/о +26.7 +9.1 33 +27 +27 жарко 1016.1 1003.9
22 23.02 ЮВ 2 н/о н/о +30.5 +9.4 27 +30 +30 жарко 1016.3 1004.1
23 23.02 СЗ 3 н/о н/о +34.6 +9.1 21 +33 +33 жарко 1016.5 1004.3
00 24.02 СЗ 3 н/о н/о +36.7 +9.3 19 +35 +35 очень
жарко
1016.5 1004.3
01 24.02 С 2 н/о н/о +38.7 +9.3 17 +37 +37 очень
жарко
1015.9 1003.7 +23.1
02 24.02 С 5 н/о н/о +38.7 +7.4 15 +36 +36 очень
жарко
1015.0 1002.8
03 24.02 СВ 4 н/о н/о +39.1 +6.7 14 +37 +37 очень
жарко
1013.9 1001.7
04 24.02 З 4 н/о н/о +41.1 +7.2 13 +39 +39 очень
жарко
1013.0 1000.8
05 24.02 З 3 н/о н/о +40.6 +6.8 13 +38 +38 очень
жарко
1012.2 1000.0
06 24.02 З 4 н/о н/о +40.2 +6.5 13 +38 +38 очень
жарко
1011.8 999.6
07 24.02 З 2 н/о н/о +39.6 +7.1 14 +37 +37 очень
жарко
1011.5 999.3
08 24.02 Ю 4 н/о н/о +38.6 +6.3 14 +36 +36 очень
жарко
1011.6 999.4
09 24.02 В 2 н/о н/о +37.1 +6.2 15 +35 +35 очень
жарко
1011.9 999.7
10 24.02 Ю 6 н/о н/о +35.9 +6.2 16 +33 +33 жарко 1012.7 1000.5
11 24.02 Ю 6 н/о н/о +34.5 +5.0 16 +32 +32 жарко 1013.4 1001.2
12 24.02 Ю 6 н/о н/о +33.7 +3.5 15 +31 +31 жарко 1013.8 1001.6
13 24.02 Ю 5 н/о н/о +32.4 +3.4 16 +30 +30 жарко 1013.9 1001.7 +41.8
14 24.02 Ю 5 н/о н/о +31.2 +4.1 18 +29 +29 жарко 1013.7 1001.5
15 24.02 Ю 4 н/о н/о +29.6 +3.6 19 +28 +28 жарко 1013.4 1001.2
16 24.02 Ю 5 н/о н/о +28.2 +3.1 20 +26 +26 жарко 1013.4 1001.2
17 24.02 Ю 4 н/о н/о +26.7 +3.2 22 +25 +25 комфорт 1013.2 1001.0
18 24.02 Ю 5 н/о н/о +26.1 +2.7 22 +25 +25 комфорт 1013.1 1000.9
19 24.02 Ю 6 н/о н/о +25.1 +2.5 23 +24 +24 комфорт 1013.2 1001.0
20 24.02 Ю 5 н/о н/о +24.0 +2.8 25 +23 +23 комфорт 1013.5 1001.3
21 24.02 Ю 5 н/о н/о +24.9 +3.5 25 +24 +24 комфорт 1014.0 1001.8
22 24.02 Ю 6 н/о н/о +26.7 +3.9 23 +25 +25 комфорт 1014.3 1002.1
23 24.02 Ю 4 н/о н/о +29.0 +4.5 21 +27 +27 жарко 1014.4 1002.2
00 25.02 Ю 4 н/о н/о +30.9 +6.0 21 +29 +29 жарко 1014.2 1002.0
01 25.02 Ю 4 н/о н/о +33.4 +7.4 20 +32 +32 жарко 1013.5 1001.3 +24.0
02 25.02 Ю 4 н/о н/о +35.4 +8.3 19 +34 +34 очень
жарко
1012.8 1000.6
03 25.02 Ю 5 н/о н/о +37.3 +6.3 15 +35 +35 очень
жарко
1011.9 999.7
04 25.02 З 5 н/о н/о +37.7 +2.2 11 +34 +34 очень
жарко
1011.0 998.8
05 25.02 З 4 н/о н/о +38.7 +1.6 10 +35 +35 очень
жарко
1010.2 998.0
06 25.02 ЮЗ 6 н/о н/о +38.7 +0.2 9 +35 +35 очень
жарко
1009.7 997.5
07 25.02 ЮЗ 6 н/о н/о +37.4 -0.8 9 +34 +34 очень
жарко
1009.6 997.4
08 25.02 ЮЗ 4 н/о н/о +36.9 -1.1 9 +33 +33 жарко 1009.5 997.3
09 25.02 ЮЗ 3 н/о н/о +33.4 -2.3 10 +30 +30 жарко 1009.9 997.7
10 25.02 ЮЗ 4 н/о н/о +30.5 -2.1 12 +27 +27 жарко 1010.3 998.1
11 25.02 ЮЗ 4 н/о н/о +30.2 -2.3 12 +27 +27 жарко 1011.0 998.8
12 25.02 Ю 5 н/о н/о +30.1 -1.3 13 +27 +27 жарко 1011.6 999.4
13 25.02 Ю 5 н/о н/о +29.5 -1.8 13 +26 +26 жарко 1011.8 999.6 +39.5
14 25.02 Ю 5 н/о н/о +28.6 -1.5 14 +26 +26 жарко 1011.7 999.5
15 25.02 Ю 6 н/о н/о +27.8 +6.4 26 +25 +25 комфорт 1011.0 998.8
16 25.02 ЮВ 4 н/о н/о +26.2 -0.8 17 +24 +24 комфорт 1010.9 998.7
17 25.02 ЮВ 5 н/о н/о +26.4 +11.7 40 +28 +28 жарко 1010.7 998.5
18 25.02 В 6 н/о н/о +25.6 +13.8 48 +28 +28 жарко 1010.8 998.6
19 25.02 В 6 н/о н/о +25.0 +13.9 50 +27 +27 жарко 1011.4 999.2
20 25.02 В 6 н/о н/о +24.5 +14.0 52 +27 +27 жарко 1012.1 999.9
21 25.02 В 7 н/о н/о +25.0 +13.9 50 +27 +27 жарко 1012.8 1000.6
22 25.02 В 8 н/о н/о +26.6 +14.4 47 +29 +29 жарко 1013.4 1001.2
23 25.02 В 7 н/о н/о +28.2 +14.4 43 +30 +30 жарко 1013.8 1001.6
00 26.02 В 8 н/о н/о +29.8 +13.5 37 +31 +31 жарко 1013.8 1001.6
01 26.02 В 7 н/о н/о +31.8 +13.1 32 +33 +33 жарко 1013.4 1001.2 +24.3
02 26.02 В 7 н/о н/о +33.6 +13.1 29 +34 +34 очень
жарко
1012.7 1000.5
03 26.02 ЮВ 7 н/о н/о +35.0 +12.6 26 +35 +35 очень
жарко
1012.1 999.9
04 26.02 В 7 н/о н/о +35.2 +11.6 24 +35 +35 очень
жарко
1011.1 998.9
05 26.02 В 6 н/о н/о +36.0 +11.6 23 +36 +36 очень
жарко
1010.3 998.1
06 26.02 СВ 6 н/о н/о +34.9 +10.0 22 +34 +34 очень
жарко
1009.9 997.7
07 26.02 ЮВ 5 н/о н/о +35.8 +10.1 21 +35 +35 очень
жарко
1009.6 997.4
08 26.02 В 7 н/о н/о +34.9 +10.7 23 +34 +34 очень
жарко
1010.0 997.8
09 26.02 В 7 н/о н/о +32.9 +12.0 28 +33 +33 жарко 1010.6 998.4
10 26.02 В 7 н/о н/о +31.9 +12.2 30 +32 +32 жарко 1012.1 999.9
11 26.02 В 7 н/о н/о +31.0 +11.4 30 +31 +31 жарко 1013.4 1001.2
12 26.02 В 7 н/о н/о +29.7 +13.0 36 +31 +31 жарко 1013.9 1001.7
13 26.02 В 6 н/о н/о +28.9 +12.8 37 +30 +30 жарко 1014.3 1002.1 +37.0
14 26.02 В 6 н/о н/о +27.9 +13.1 40 +30 +30 жарко 1014.8 1002.6
15 26.02 В 5 н/о н/о +26.9 +11.4 38 +28 +28 жарко 1015.0 1002.8
16 26.02 В 5 н/о н/о +26.0 +11.4 40 +27 +27 жарко 1015.3 1003.1
17 26.02 В 6 н/о н/о +24.9 +12.2 45 +27 +27 жарко 1015.5 1003.3
18 26.02 В 6 н/о н/о +23.7 +12.4 49 +26 +26 жарко 1015.8 1003.6
19 26.02 В 6 н/о н/о +23.0 +12.6 52 +26 +26 жарко 1016.3 1004.1
20 26.02 В 6 н/о н/о +22.4 +12.6 54 +25 +25 комфорт 1016.7 1004.5
21 26.02 В 7 н/о н/о +23.0 +12.9 53 +26 +26 жарко 1017.3 1005.1
22 26.02 В 7 н/о н/о +24.5 +13.1 49 +27 +27 жарко 1017.9 1005.6
23 26.02 В 8 н/о н/о +26.3 +13.1 44 +28 +28 жарко 1018.2 1005.9
00 27.02 В 7 н/о н/о +27.7 +12.9 40 +29 +29 жарко 1018.1 1005.8
01 27.02 В 5 н/о н/о +29.4 +11.5 33 +30 +30 жарко 1017.5 1005.2 +22.3
02 27.02 В 6 н/о н/о +31.5 +11.8 30 +32 +32 жарко 1016.4 1004.2
03 27.02 В 6 н/о н/о +33.0 +10.9 26 +33 +33 жарко 1015.8 1003.6
04 27.02 В 6 н/о н/о +33.9 +9.9 23 +33 +33 жарко 1014.9 1002.7
05 27.02 В 6 н/о н/о +33.6 +8.3 21 +32 +32 жарко 1014.2 1002.0

 

Местоположение метеостанции Bourke Airport Aws (Новый Южный Уэльс, Австралия): широта -30.03 долгота 145.95 высота над уровнем моря 108 м.

В архиве по умолчанию представлена погода в Bourke Airport Aws за последнюю неделю. Архивные данные за месяц целиком и за предыдущие месяцы, начиная с января 2011 года, Вы можете получить, выбрав интересующий диапазон дат из раскрывающегося списка и нажав кнопку "Ввод!".

Внимание! Время в таблицах - всемирное. Для получения местного времени необходимо прибавить поправку, которая в Bourke Airport Aws равна 10 ч.

Смотрите также архив погоды в соседних городах и на ближайших метеорологических станциях:

Погода в Cobar Mo (Новый Южный Уэльс, Австралия) (162 км)
Погода в Cobar Airport Aws (Новый Южный Уэльс, Австралия) (167 км)
Погода в Walgett Airport Aws (Новый Южный Уэльс, Австралия) (209 км)
Погода в Coonamble Airport (Новый Южный Уэльс, Австралия) (256 км)
Погода в Trangie Research Stn (Новый Южный Уэльс, Австралия) (289 км)
Погода в White Cliffs Aws (Новый Южный Уэльс, Австралия) (291 км)
Погода в Wilcannia Aerodrome (Новый Южный Уэльс, Австралия) (296 км)
Погода в Thargomindah Airport (Квинсленд, Австралия) (309 км)
Погода в St George Airport (Квинсленд, Австралия) (339 км)
Погода в Dubbo Airport Aws (Новый Южный Уэльс, Австралия) (347 км)

Пояснения к столбцам:

Ветер - указаны скорость ветра в м/с - средняя за 10 мин, порывы в срок и между сроками (в фигурных скобках) и направление, откуда дует ветер: С - северный, СВ - северо-восточный, В - восточный, ЮВ - юго-восточный, Ю - южный, ЮЗ - юго-западный, З - западный, СЗ - северо-западный.
Видимость - горизонтальная дальность видимости в метрах или километрах. При видимости от 1 до 10 км при отсутствии осадков обычно наблюдается дымка, при ухудшении видимости до 1 км и менее - туман. В сухую погоду видимость может ухудшаться дымом, пылью или мглою.
Явления - указаны атмосферные явления, наблюдавшиеся в срок или в последний час перед сроком; фигурными скобками обозначены явления, наблюдавшиеся между сроками (за 1-3 часа до срока); квадратными скобками обозначены град или гололедные отложения с указанием их диаметра в мм.
Облачность - указаны через наклонную черту общая и нижняя облачность в баллах и высота нижней границы облаков в метрах; квадратными скобками обозначены формы облаков: Ci - перистые, Cs - перисто-слоистые, Cc - перисто-кучевые, Ac - высококучевые, As - высокослоистые, Sc - слоисто-кучевые, Ns - слоисто-дождевые, Cu - кучевые, Cb - кучево-дождевые. Подробнее классификацию облаков см. в Атласе облаков (PDF).
T - Температура воздуха - температура, измеренная на высоте 2 м над землей.
Td - Температура точки росы - температура, при понижении до которой содержащийся в воздухе водяной пар достигнет насыщения.
f - Относительная влажность воздуха - влажноcть воздуха, измеренная на высоте 2 м над землей.
Te - Эффективная температура - температура, которую ощущает одетый по сезону человек в тени. Характеристика душности погоды. При расчете учитывается влияние влажности воздуха и скорости ветра на теплоощущения человека.
Tes - Эффективная температура на солнце - температура, которую ощущает человек, с поправкой на солнечный нагрев. Характеристика знойности погоды. Зависит от высоты солнца над горизонтом, облачности и скорости ветра. Ночью, в пасмурную погоду, а также при ветре 12 м/с и более поправка равна нулю.
P - Атмосферное давление - приведенное к уровню моря атмосферное давление.
Po - Атмосферное давление - измеренное на уровне метеостанции атмосферное давление.
Tmin - Минимальная температура - минимум температуры воздуха на высоте 2 м над землей.
Tmax - Максимальная температура - максимум температуры воздуха на высоте 2 м над землей.
R - Количество осадков - Количество выпавших осадков, мм. При наведении курсора мыши на число - период времени, за который выпало указанное количество осадков.
S - Снежный покров - Высота снежного покрова, см. При наведении курсора мыши на число - состояние снежного покрова и степень покрытия местности в баллах.